Temperature
17 17 17 16 16 15 14 14 14 14 13 13 12 12 11 11 10 10 10 10 9 9 9 9 9 8 8 8 8 7 7 7 6 6 6 6 5 5 5 4 4 3 3
17 17 17 16 16 15 15 14 14 13 13 13 12 12 11 11 10 10 10 10 9 9 9 9 8 8 8 8 7 7 7 6 6 5 5 5 5 4 4 4 3 3 3
17 16 16 15 15 15 15 14 13 13 13 12 12 11 11 11 10 10 10 10 9 9 9 9 8 8 8 7 7 7 7 6 5 5 5 5 5 4 3 3 3 2 2
16 16 16 15 15 15 14 14 13 13 12 12 12 11 11 11 10 10 10 9 9 9 9 8 8 8 7 7 7 6 6 6 5 5 4 4 4 3 3 3 2 2 2
16 15 15 15 15 14 14 13 13 12 12 12 11 11 11 10 10 10 10 9 9 9 8 8 8 7 7 7 6 6 6 5 5 4 4 4 3 3 2 2 1 1 1
15 15 15 15 14 14 14 13 13 12 12 11 11 11 10 10 10 10 9 9 9 8 8 8 7 7 7 6 6 6 5 5 4 4 3 3 3 2 1 1 0 -0 -0
15 15 14 14 14 14 13 13 12 12 12 11 11 10 10 10 10 9 9 9 8 8 8 7 7 7 6 6 6 5 5 4 4 3 3 2 2 1 1 0 -0 -1 -1
14 14 14 14 13 13 13 12 12 12 11 11 11 11 10 10 10 9 9 8 8 8 8 7 7 6 6 5 5 5 4 4 3 3 2 2 1 0 -0 -1 -1 -1 -1
13 13 13 13 13 13 12 12 12 11 11 11 11 10 10 10 9 9 8 8 8 7 7 7 6 6 5 5 5 4 4 3 3 2 2 1 1 -0 -1 -1 -1 -2 -2
13 13 13 13 13 12 12 12 11 11 11 11 10 10 10 9 9 9 8 8 8 7 7 6 6 5 5 4 4 3 3 3 2 2 1 1 0 -1 -1 -2 -2 -3 -4
12 12 12 12 12 12 12 11 11 11 10 10 10 10 9 9 8 8 8 8 7 7 6 6 5 5 4 4 3 3 2 2 2 1 1 0 -0 -1 -2 -2 -3 -3 -4
11 11 11 11 11 11 11 11 10 10 10 10 9 9 9 8 8 8 7 7 7 6 6 5 5 4 4 3 3 2 2 1 1 1 0 -0 -1 -1 -2 -3 -3 -4 -4
11 11 11 10 10 10 10 10 10 10 9 9 9 8 8 8 7 7 7 6 6 6 5 5 4 4 3 3 2 2 1 1 0 -0 -1 -1 -2 -2 -3 -3 -3 -4 -4
10 10 10 10 10 9 9 9 9 9 9 9 8 8 8 7 7 7 6 6 5 5 5 4 4 3 3 2 2 1 1 0 -0 -1 -1 -2 -2 -3 -3 -4 -4 -4 -4
9 9 9 9 9 9 9 9 9 9 9 9 9 8 8 7 7 6 6 6 5 5 4 4 3 3 2 2 1 1 0 -0 -1 -1 -2 -2 -3 -3 -4 -4 -4 -5 -5
8 8 8 8 8 8 8 8 8 8 8 8 8 7 7 7 6 6 5 5 5 4 4 3 3 2 2 1 1 0 -0 -1 -1 -2 -2 -3 -3 -4 -4 -5 -5 -5 -6
8 8 8 7 7 7 7 7 7 7 7 7 7 6 6 6 5 5 5 4 4 4 3 3 2 2 1 1 0 -0 -1 -1 -2 -2 -3 -3 -4 -4 -5 -5 -5 -6 -6
7 7 7 7 7 7 6 6 6 6 6 6 6 5 5 5 5 5 4 4 3 3 3 2 2 1 1 0 -0 -1 -1 -2 -2 -3 -3 -4 -4 -5 -5 -5 -6 -6 -7
6 7 6 6 6 6 6 5 6 6 6 5 5 5 5 4 4 4 4 3 3 3 2 2 1 1 0 -0 -1 -1 -2 -2 -3 -3 -4 -4 -4 -5 -5 -6 -6 -6 -7
6 6 6 6 5 5 5 5 5 5 5 5 5 5 4 4 4 3 3 3 3 2 2 1 1 0 -0 -1 -1 -2 -2 -3 -3 -3 -4 -4 -5 -5 -6 -6 -6 -7 -7
5 5 5 5 5 5 5 4 5 5 5 5 5 4 4 4 4 3 3 3 2 2 1 1 0 -0 -1 -1 -2 -2 -2 -3 -3 -4 -4 -5 -5 -6 -6 -6 -7 -7 -7
4 4 4 4 4 4 4 4 4 4 4 4 4 4 3 3 3 3 2 2 2 1 1 0 -0 -1 -1 -1 -2 -2 -3 -3 -4 -4 -5 -5 -5 -6 -6 -6 -7 -7 -7
4 4 4 3 3 3 3 3 3 3 4 4 4 3 3 3 2 2 2 2 1 1 0 -0 -0 -1 -1 -2 -2 -3 -3 -3 -4 -4 -5 -5 -6 -6 -6 -7 -7 -7 -7
3 3 3 3 3 3 3 3 3 3 3 3 3 3 2 2 2 2 1 1 1 0 -0 -0 -1 -1 -2 -2 -2 -3 -3 -4 -4 -5 -5 -5 -6 -6 -7 -7 -7 -8 -8
2 2 3 3 2 2 2 2 3 3 3 3 3 2 2 2 1 1 1 0 0 -0 -1 -1 -1 -2 -2 -2 -3 -3 -4 -4 -4 -5 -5 -6 -6 -6 -7 -7 -7 -8 -8
2 2 2 2 2 2 2 2 3 3 3 2 2 2 1 1 1 1 0 -0 -1 -1 -1 -1 -2 -2 -2 -3 -3 -3 -4 -4 -5 -5 -5 -6 -6 -7 -7 -7 -8 -8 -8
Wind_Speed
20 19 18 18 17 15 15 15 14 13 13 14 14 13 13 12 11 11 11 10 10 9 8 8 9 7 5 5 4 4 4 4 6 4 2 2 2 3 5 6 7 7 9
18 17 18 17 16 16 16 15 14 13 13 13 13 13 13 12 12 13 12 11 11 11 10 9 9 6 7 5 4 5 5 5 5 6 3 2 3 3 3 4 5 6 8
16 16 16 15 16 17 16 14 14 14 13 12 13 13 13 12 12 12 11 11 11 10 10 10 9 8 7 5 5 5 4 3 3 3 3 2 2 2 2 3 4 4 7
13 15 16 16 17 16 15 14 14 14 14 13 13 13 12 11 11 11 10 10 9 9 8 8 8 8 8 7 5 5 4 3 2 2 3 3 2 2 2 3 4 4 5
13 14 15 14 13 13 13 13 13 13 13 13 12 11 11 10 10 11 10 10 9 8 7 6 6 7 8 6 5 5 4 3 2 2 3 2 2 2 2 2 4 5 5
13 13 12 12 12 13 13 13 13 12 12 12 12 12 11 9 12 15 12 9 9 8 7 5 5 6 7 7 6 6 5 4 4 3 3 3 4 3 2 2 3 3 4
11 11 11 12 12 12 12 12 13 12 11 11 11 11 11 11 14 15 15 10 8 8 7 6 4 5 6 5 4 4 3 3 4 4 3 4 3 3 2 2 3 3 4
9 10 10 11 12 11 12 12 12 10 11 11 10 10 9 10 14 15 15 10 7 7 7 7 7 5 5 6 5 3 2 1 1 2 3 3 2 2 2 2 3 3 4
9 9 10 11 12 12 12 12 10 9 9 9 9 10 10 10 14 16 14 8 6 6 5 6 7 6 7 8 6 4 2 1 1 1 1 2 3 2 2 1 2 3 4
8 8 9 10 11 12 12 10 8 8 9 9 8 8 9 9 13 16 15 7 7 5 4 5 7 7 8 9 7 5 4 2 1 1 2 3 4 3 4 1 1 2 3
6 7 7 9 10 10 9 8 9 8 9 8 8 7 7 9 13 16 15 8 8 7 6 4 5 8 8 8 7 5 4 3 2 2 1 1 2 2 3 3 2 1 2
6 7 7 7 7 8 10 9 9 10 9 8 8 6 5 7 9 13 15 12 10 8 6 5 5 9 9 8 5 5 5 4 3 2 1 1 1 2 2 3 4 3 3
6 6 6 7 7 8 10 10 9 8 8 8 8 7 6 5 7 12 14 14 12 7 6 9 9 10 9 6 6 6 5 3 2 1 0 1 1 1 1 2 3 4 4
7 6 7 7 7 7 7 8 8 8 8 9 9 8 7 6 6 7 7 8 10 8 7 9 11 10 7 5 5 4 2 3 2 2 1 0 1 1 1 2 2 3 3
6 6 6 6 7 7 5 6 7 7 9 10 9 9 10 9 9 13 11 9 8 8 8 5 4 4 3 3 2 2 2 2 2 1 1 0 1 1 2 2 2 2 2
6 6 6 6 6 6 6 4 4 5 9 10 11 10 7 10 15 16 14 14 15 16 9 5 5 5 4 4 4 2 2 2 2 1 1 1 0 1 2 2 2 2 2
7 7 6 6 6 7 7 7 6 5 8 10 13 13 12 16 17 17 17 16 16 14 6 6 5 5 5 4 4 3 3 2 2 2 1 1 0 1 1 2 2 2 3
6 7 7 7 7 7 7 7 7 8 7 5 7 13 15 17 17 18 18 14 9 7 5 6 6 5 5 5 4 3 3 3 2 2 2 1 0 0 1 1 2 2 3
6 6 6 6 6 6 7 7 7 7 8 7 6 8 13 15 16 17 15 7 8 7 5 5 5 5 5 4 4 4 4 3 3 2 2 1 1 0 1 2 2 4 3
5 8 8 7 7 7 7 7 7 8 9 8 8 8 9 9 8 9 6 6 6 6 6 6 5 5 5 5 4 4 4 3 3 2 2 1 1 1 1 2 2 2 3
5 7 9 8 7 7 7 8 8 8 9 8 8 9 13 9 9 8 7 6 6 6 6 6 5 5 5 5 5 5 5 4 3 3 2 2 1 1 1 1 2 2 2
6 6 7 7 7 7 7 7 8 8 9 9 8 9 14 8 7 7 6 6 5 5 5 6 5 5 5 5 5 5 5 4 4 3 3 2 2 1 1 1 1 2 2
6 7 7 7 7 9 8 7 8 8 9 9 9 8 8 7 7 7 7 6 5 5 6 6 6 5 5 6 6 6 5 5 5 5 4 3 2 1 1 1 1 1 2
7 8 8 8 7 8 8 8 8 9 9 9 9 8 8 7 7 7 7 6 6 6 6 6 6 7 8 6 5 5 5 5 6 5 5 4 3 2 1 1 1 1 1
7 7 8 8 8 8 8 9 9 9 9 9 8 8 8 8 7 7 7 6 7 6 7 7 7 7 8 8 7 6 7 7 6 6 5 4 3 2 2 1 1 0 1
7 7 7 7 7 8 8 9 9 9 9 8 8 8 8 8 8 7 7 7 6 6 6 6 7 8 9 8 8 8 8 7 7 7 6 4 4 3 2 1 1 0 0
Wind_Direction
194 193 193 194 194 191 193 196 196 191 188 189 191 193 196 197 195 197 201 195 200 204 199 204 213 204 204 207 205 208 213 207 242 265 251 272 265 280 293 288 289 294 300
192 191 193 191 189 191 195 194 191 191 191 190 189 193 196 196 196 199 202 199 201 204 204 204 212 202 207 207 205 213 218 214 225 263 275 272 264 276 286 293 305 305 302
187 188 189 189 189 193 194 190 188 189 188 188 189 194 196 195 195 198 198 198 202 205 203 205 207 197 208 207 206 214 218 216 215 242 269 278 283 306 306 305 307 302 307
183 187 189 191 192 192 189 186 186 186 187 189 190 192 194 193 194 193 193 195 199 202 201 203 201 199 206 203 204 210 205 205 212 238 267 280 283 302 303 296 305 306 304
181 187 193 190 187 184 183 183 183 184 186 185 185 187 187 189 191 188 189 190 194 195 193 195 196 195 196 192 194 196 188 199 209 235 261 280 283 301 291 276 291 302 296
183 187 184 179 179 181 182 180 180 181 181 180 184 186 186 190 186 182 182 185 185 186 187 182 182 186 186 186 185 181 180 191 205 217 239 262 271 271 267 285 293 317 303
181 179 176 175 178 180 177 176 179 180 178 179 183 183 186 186 178 177 176 176 178 183 181 177 176 180 173 172 170 158 173 189 196 200 226 246 257 254 257 273 275 282 278
175 174 173 172 174 172 172 177 179 176 177 179 179 179 178 178 170 168 166 169 171 175 177 178 175 173 172 161 154 156 174 214 212 195 214 240 246 238 220 245 265 285 284
172 174 174 171 169 169 173 176 174 171 173 175 174 173 173 172 166 163 159 167 166 167 168 167 167 172 169 158 153 161 168 241 61 93 52 23 12 10 43 49 358 339 310
178 173 170 168 169 173 174 171 166 165 168 165 165 171 171 170 165 162 158 162 164 162 157 163 166 166 164 160 162 167 182 205 154 68 43 31 25 18 17 18 265 310 310
163 155 161 165 167 168 164 160 156 154 154 156 156 160 165 166 164 163 162 166 167 163 164 166 167 158 156 158 160 172 184 169 149 128 91 42 22 7 352 345 317 256 272
146 150 156 159 157 156 156 155 152 153 154 155 153 152 157 161 162 167 166 165 160 162 167 165 160 153 151 152 155 155 143 129 126 119 93 29 345 326 324 326 323 316 286
147 151 151 150 153 156 158 158 156 158 161 163 164 167 164 158 160 157 161 160 155 153 154 153 150 146 144 147 145 139 135 134 135 138 176 272 282 291 325 336 338 339 330
155 154 153 154 155 155 158 162 165 168 168 168 170 170 164 159 158 157 159 155 148 141 137 140 136 133 127 129 131 131 134 150 151 168 194 308 346 354 345 337 329 337 336
157 158 157 158 159 158 158 167 169 178 177 174 175 170 168 175 176 164 160 160 158 149 135 123 123 132 136 133 128 126 126 124 123 127 128 92 357 349 333 338 338 340 325
164 165 164 160 158 156 149 124 111 148 158 161 161 159 164 160 156 158 155 152 149 147 138 146 153 157 164 165 162 155 146 150 151 144 143 158 265 315 329 339 345 334 316
175 172 167 164 163 162 159 155 145 113 125 144 152 154 153 154 156 156 153 150 151 148 144 158 165 171 172 171 171 171 176 175 164 159 165 187 264 311 327 327 327 325 316
173 170 170 171 168 167 167 164 162 157 150 138 146 151 151 153 154 154 151 144 152 154 158 165 170 172 171 173 175 174 171 163 163 170 175 181 204 289 309 309 307 312 311
175 172 167 166 165 164 161 157 157 155 152 146 136 144 149 149 150 152 151 155 163 167 165 166 166 168 170 171 171 170 171 173 173 173 176 181 199 237 284 291 296 319 327
175 166 165 164 162 161 160 159 160 159 157 158 159 155 150 148 155 161 163 159 161 164 165 165 165 164 165 167 168 168 168 168 169 171 177 184 201 218 248 269 290 302 301
168 166 162 162 167 166 165 166 166 165 165 165 164 164 162 162 165 166 167 165 164 164 165 163 162 164 163 163 165 168 170 174 174 174 175 182 191 224 258 271 284 296 308
167 169 170 168 165 166 165 164 165 165 163 160 157 160 162 157 159 161 163 162 159 158 160 160 162 168 170 170 169 169 171 173 175 174 174 178 189 208 237 279 310 314 318
163 163 164 164 163 163 163 164 165 165 163 163 160 159 161 161 161 160 158 155 152 152 151 151 156 160 160 162 165 168 175 182 182 176 173 177 181 192 203 233 276 306 310
163 164 166 166 165 167 167 167 166 163 162 161 161 160 160 158 155 153 151 148 148 149 149 151 155 160 157 154 157 164 171 174 171 172 168 168 174 180 190 211 257 283 300
162 163 165 167 167 166 165 164 163 162 161 160 159 157 154 151 150 148 147 147 146 149 150 149 151 154 157 157 158 162 166 164 164 161 156 155 165 173 178 188 222 274 318
155 155 156 159 162 163 162 162 162 160 159 157 156 155 154 152 150 149 149 149 150 151 150 149 151 152 156 159 161 163 162 161 162 161 154 148 156 165 164 173 195 202 311
Height
1416 1422 1427 1432 1438 1443 1448 1452 1457 1462 1466 1469 1473 1477 1480 1483 1486 1488 1491 1493 1495 1497 1499 1500 1501 1503 1503 1504 1504 1503 1503 1502 1499 1497 1497 1495 1493 1491 1488 1486 1483 1480 1477
1409 1415 1420 1426 1431 1436 1441 1446 1451 1456 1460 1464 1468 1471 1474 1477 1480 1483 1485 1487 1489 1491 1493 1495 1496 1497 1498 1499 1499 1498 1498 1497 1495 1492 1491 1490 1488 1486 1483 1481 1478 1475 1472
1404 1409 1414 1420 1425 1430 1435 1440 1445 1450 1454 1458 1462 1465 1469 1472 1475 1477 1480 1482 1484 1486 1488 1490 1491 1492 1493 1493 1493 1493 1492 1492 1490 1488 1486 1485 1483 1481 1478 1475 1473 1470 1467
1398 1403 1408 1413 1418 1424 1429 1435 1439 1444 1448 1452 1456 1460 1463 1467 1469 1472 1475 1477 1479 1481 1483 1484 1486 1487 1487 1488 1488 1488 1487 1486 1485 1483 1482 1480 1478 1475 1473 1470 1467 1464 1462
1392 1396 1401 1407 1413 1419 1424 1429 1434 1439 1443 1447 1451 1455 1458 1461 1464 1467 1470 1472 1474 1476 1478 1479 1480 1481 1482 1483 1483 1483 1482 1482 1480 1479 1477 1475 1473 1471 1468 1465 1462 1459 1456
1386 1391 1396 1402 1407 1413 1418 1424 1429 1433 1438 1442 1446 1449 1453 1456 1459 1462 1465 1467 1469 1471 1473 1474 1475 1477 1477 1478 1478 1478 1478 1477 1476 1474 1473 1471 1469 1467 1464 1462 1458 1454 1451
1381 1386 1391 1397 1402 1407 1413 1418 1423 1428 1432 1436 1440 1444 1447 1451 1454 1457 1460 1462 1465 1466 1468 1469 1470 1471 1472 1473 1473 1473 1473 1472 1472 1471 1469 1467 1465 1463 1460 1457 1454 1451 1448
1377 1382 1387 1392 1397 1402 1407 1412 1418 1423 1427 1431 1435 1439 1443 1446 1449 1452 1455 1458 1460 1462 1463 1465 1466 1467 1468 1468 1469 1469 1468 1468 1467 1466 1465 1463 1461 1459 1457 1454 1451 1448 1445
1373 1377 1382 1387 1392 1397 1402 1407 1413 1418 1422 1426 1431 1434 1438 1441 1444 1447 1451 1453 1455 1457 1458 1460 1461 1462 1463 1464 1464 1464 1464 1464 1463 1462 1461 1459 1457 1455 1453 1450 1447 1443 1439
1369 1373 1377 1382 1387 1392 1397 1403 1408 1413 1417 1422 1426 1430 1433 1436 1439 1443 1446 1448 1450 1452 1454 1455 1457 1458 1459 1459 1460 1460 1460 1459 1459 1458 1457 1455 1453 1451 1449 1447 1444 1440 1436
1366 1370 1374 1378 1383 1388 1393 1398 1403 1408 1413 1417 1421 1425 1429 1432 1435 1438 1441 1444 1446 1448 1449 1451 1452 1454 1455 1455 1456 1456 1456 1456 1455 1454 1453 1451 1449 1448 1446 1443 1441 1438 1435
1363 1366 1371 1375 1379 1384 1389 1394 1399 1404 1408 1412 1416 1420 1424 1427 1431 1433 1436 1439 1442 1444 1445 1447 1449 1450 1451 1452 1452 1452 1453 1452 1451 1450 1449 1447 1445 1444 1442 1440 1438 1435 1432
1360 1363 1367 1371 1376 1380 1385 1389 1394 1399 1403 1407 1411 1415 1419 1423 1426 1429 1432 1435 1438 1440 1442 1443 1445 1446 1447 1448 1449 1449 1449 1448 1447 1446 1445 1443 1442 1441 1439 1437 1435 1432 1430
1357 1360 1364 1368 1372 1376 1381 1385 1390 1394 1398 1402 1406 1410 1414 1417 1421 1424 1427 1430 1433 1436 1438 1440 1442 1443 1444 1444 1445 1445 1445 1444 1444 1443 1441 1440 1439 1437 1436 1433 1431 1429 1426
1353 1357 1360 1364 1368 1372 1377 1381 1386 1390 1394 1398 1401 1405 1408 1412 1416 1420 1423 1426 1429 1432 1434 1436 1438 1439 1440 1440 1441 1441 1441 1441 1440 1439 1438 1437 1436 1434 1433 1431 1429 1426 1423
1350 1353 1357 1360 1364 1368 1373 1378 1383 1388 1392 1396 1400 1403 1407 1410 1414 1417 1420 1423 1426 1429 1431 1432 1433 1435 1436 1437 1437 1437 1437 1437 1437 1436 1435 1434 1433 1432 1430 1428 1427 1424 1421
1346 1349 1353 1356 1360 1364 1368 1373 1377 1383 1388 1392 1396 1400 1403 1407 1410 1413 1416 1420 1422 1425 1427 1428 1430 1431 1432 1433 1434 1434 1434 1434 1434 1434 1433 1432 1431 1429 1428 1426 1424 1422 1419
1342 1345 1349 1352 1356 1360 1365 1369 1373 1377 1382 1386 1391 1396 1400 1403 1407 1410 1413 1416 1418 1421 1422 1424 1426 1427 1429 1429 1430 1431 1431 1431 1431 1431 1430 1429 1428 1427 1426 1424 1422 1420 1417
1338 1341 1345 1349 1353 1357 1361 1366 1370 1374 1378 1382 1387 1392 1396 1400 1403 1407 1409 1412 1413 1416 1418 1420 1422 1424 1425 1426 1427 1428 1428 1428 1428 1428 1427 1427 1426 1425 1424 1422 1420 1418 1416
1334 1337 1341 1345 1349 1353 1357 1362 1366 1370 1374 1378 1382 1386 1391 1395 1398 1401 1404 1407 1410 1412 1415 1417 1418 1420 1421 1423 1424 1424 1425 1425 1425 1425 1425 1424 1424 1423 1422 1420 1418 1417 1415
1330 1334 1337 1341 1345 1349 1353 1358 1362 1366 1370 1374 1379 1383 1387 1391 1394 1397 1400 1403 1406 1409 1411 1413 1415 1417 1418 1419 1420 1421 1422 1422 1422 1422 1422 1422 1422 1421 1420 1418 1417 1415 1414
1326 1329 1333 1337 1341 1345 1349 1354 1358 1363 1367 1371 1375 1380 1384 1388 1391 1394 1397 1400 1403 1406 1408 1410 1412 1413 1415 1416 1417 1418 1418 1419 1419 1419 1420 1420 1419 1419 1418 1417 1416 1414 1413
1323 1326 1330 1333 1337 1342 1346 1351 1355 1359 1363 1368 1372 1376 1380 1383 1387 1391 1394 1397 1400 1403 1405 1407 1408 1410 1411 1413 1414 1415 1416 1416 1417 1417 1417 1417 1417 1416 1416 1415 1414 1413 1412
1319 1322 1326 1329 1334 1338 1342 1346 1351 1356 1360 1364 1368 1372 1376 1380 1384 1388 1391 1394 1397 1399 1401 1403 1405 1407 1408 1410 1411 1412 1413 1414 1414 1415 1415 1415 1415 1415 1414 1414 1413 1412 1411
1315 1319 1322 1326 1330 1334 1339 1343 1347 1352 1357 1361 1365 1369 1373 1377 1381 1384 1388 1390 1393 1396 1398 1400 1402 1404 1405 1407 1408 1409 1410 1411 1412 1413 1413 1413 1413 1413 1413 1412 1412 1411 1411
1312 1316 1319 1323 1328 1332 1336 1340 1344 1349 1353 1358 1362 1366 1370 1374 1377 1381 1384 1387 1390 1393 1395 1397 1399 1401 1403 1404 1406 1407 1408 1409 1410 1411 1411 1411 1411 1411 1411 1411 1411 1411 1410